Tracking 29892 objects as of 21-Nov-2024
HD Live streaming from Space Station
objects crossing your sky now

FENGYUN 1C DEB

Track FENGYUN 1C DEB now!
10-day predictions


NORAD ID: 31431
Int'l Code: 1999-025BTT
Perigee: 801.7 km
Apogee: 999.2 km
Inclination: 98.5 °
Period: 102.8 minutes
Semi major axis: 7271 km
RCS: 0.0051 m2 (small)
Launch date: May 10, 1999
Source: People's Republic of China (PRC)
Launch site: Taiyaun Space Center, China (TSC)

Note: This is SATELLITE DEBRIS
Your satellite tracking list
Your tracking list is empty




NASA's NSSDC Master Catalog

Two Line Element Set (TLE):
1 31431U 99025BTT 24306.22983342  .00007941  00000-0  49918-2 0  9999
2 31431  98.5499 213.4636 0135841 158.7722 201.9155 14.00143014888361
Source of the keplerian elements: AFSPC